Location: Champs
(48.8539°N, 2.6040°E)
Time: 23:15:12
(UTC+00:00)

SPOT 1 Rocket Y - Pass Details

Date: 26 August 2022
Orbit: 784 x 832 km, 98.5° (Epoch: 07 October)

Event Time Altitude Azimuth Distance (km) Brightness Sun altitude
Exits shadow 21:48:16 - 225° (SW) 2,726 8.2 -25.1°
Reaches altitude 10° 21:49:37 10° 236° (SW) 2,391 8.0 -25.2°
Maximum altitude 21:52:46 16° 273° (W) 2,023 8.0 -25.5°
Drops below altitude 10° 21:55:58 10° 310° (NW) 2,420 9.0 -25.7°
Sets 21:59:20 0° 332° (NNW) 3,368 10.2 -26.0°
